Tracking 20753 objects as of 7-Jun-2020
HD Live streaming from Space Station
objects crossing your sky now
Track the most recent launched group of Starlink satellites

THORAD AGENA D DEB

Track THORAD AGENA D DEB now!
10-day predictions


NORAD ID: 4895
Int'l Code: 1969-082HE
Perigee: 746.3 km
Apogee: 810.9 km
Inclination: 70.2 °
Period: 100.3 minutes
Semi major axis: 7149 km
RCS: 0.0073 m2 (small)
Launch date: September 30, 1969
Source: United States (US)
Launch site: AIR FORCE WESTERN TEST RANGE (AFWTR)

Note: This is SATELLITE DEBRIS
aabbcc
Your satellite tracking list
Your tracking list is empty




NASA's NSSDC Master Catalog

Two Line Element Set (TLE):
1  4895U 69082HE  20158.78759164 +.00000160 +00000-0 +73682-4 0  9991
2  4895 070.1744 045.4057 0045193 195.1939 164.7836 14.36089924627078
Source of the keplerian elements: AFSPC